QPF
0.00 0.00 0.00 0.00 0.00 0.00 0.00 0.00 0.00 0.00 0.00 0.00 0.00 0.00 0.00 0.00 0.00 0.00 0.00 0.00 0.00 0.00 0.00 0.00 0.00 0.01 0.01 0.01 0.01 0.01 0.01 0.02 0.02 0.02 0.02 0.03 0.03 0.03
0.00 0.00 0.00 0.00 0.00 0.00 0.00 0.00 0.00 0.00 0.00 0.00 0.00 0.00 0.00 0.00 0.00 0.00 0.00 0.00 0.00 0.00 0.00 0.00 0.00 0.01 0.01 0.01 0.01 0.02 0.02 0.02 0.02 0.02 0.03 0.03 0.04 0.04
0.00 0.00 0.00 0.00 0.00 0.00 0.00 0.00 0.00 0.00 0.00 0.00 0.00 0.00 0.00 0.00 0.00 0.00 0.00 0.00 0.00 0.00 0.00 0.00 0.00 0.01 0.01 0.01 0.01 0.02 0.02 0.02 0.03 0.03 0.03 0.04 0.04 0.05
0.00 0.00 0.00 0.00 0.00 0.00 0.00 0.00 0.00 0.00 0.00 0.00 0.00 0.00 0.00 0.00 0.00 0.00 0.00 0.00 0.00 0.00 0.00 0.00 0.00 0.01 0.01 0.01 0.01 0.02 0.02 0.02 0.02 0.03 0.03 0.03 0.04 0.04
0.00 0.00 0.00 0.00 0.00 0.00 0.00 0.00 0.00 0.00 0.00 0.00 0.00 0.00 0.00 0.00 0.00 0.00 0.00 0.00 0.00 0.00 0.00 0.00 0.00 0.01 0.01 0.01 0.01 0.02 0.02 0.02 0.02 0.02 0.02 0.02 0.03 0.03
0.00 0.00 0.00 0.00 0.00 0.00 0.00 0.00 0.00 0.00 0.00 0.00 0.00 0.00 0.00 0.00 0.00 0.01 0.00 0.00 0.00 0.00 0.00 0.00 0.00 0.00 0.01 0.01 0.01 0.01 0.01 0.01 0.02 0.02 0.03 0.03 0.03 0.03
0.00 0.00 0.00 0.00 0.00 0.00 0.00 0.00 0.00 0.01 0.01 0.01 0.01 0.01 0.01 0.01 0.01 0.01 0.01 0.01 0.01 0.00 0.00 0.00 0.00 0.00 0.00 0.00 0.00 0.01 0.01 0.02 0.02 0.03 0.03 0.03 0.03 0.04
0.00 0.00 0.00 0.00 0.00 0.00 0.00 0.00 0.01 0.01 0.01 0.01 0.02 0.01 0.01 0.01 0.01 0.02 0.02 0.02 0.02 0.01 0.01 0.01 0.00 0.00 0.00 0.00 0.00 0.01 0.01 0.02 0.02 0.03 0.03 0.03 0.04 0.04
0.00 0.00 0.00 0.00 0.00 0.00 0.00 0.00 0.00 0.01 0.01 0.01 0.02 0.01 0.01 0.01 0.02 0.03 0.03 0.03 0.03 0.02 0.03 0.02 0.01 0.00 0.00 0.00 0.01 0.01 0.01 0.02 0.03 0.03 0.04 0.04 0.04 0.05
0.00 0.00 0.00 0.00 0.00 0.00 0.00 0.00 0.00 0.00 0.01 0.01 0.01 0.01 0.01 0.02 0.02 0.03 0.04 0.05 0.04 0.02 0.02 0.03 0.01 0.00 0.00 0.00 0.00 0.01 0.02 0.02 0.03 0.03 0.03 0.03 0.03 0.04
0.00 0.00 0.00 0.00 0.00 0.01 0.01 0.01 0.01 0.01 0.01 0.02 0.02 0.02 0.03 0.04 0.05 0.06 0.07 0.09 0.08 0.03 0.02 0.03 0.01 0.01 0.00 0.00 0.00 0.01 0.01 0.01 0.02 0.02 0.02 0.03 0.03 0.03
0.00 0.00 0.00 0.00 0.01 0.01 0.01 0.02 0.02 0.01 0.01 0.01 0.01 0.01 0.02 0.01 0.02 0.03 0.04 0.07 0.08 0.06 0.02 0.02 0.02 0.02 0.02 0.01 0.00 0.01 0.01 0.01 0.01 0.01 0.01 0.02 0.02 0.02
0.00 0.00 0.00 0.00 0.01 0.01 0.02 0.02 0.02 0.02 0.02 0.02 0.02 0.02 0.01 0.01 0.01 0.01 0.02 0.03 0.05 0.05 0.02 0.03 0.03 0.03 0.03 0.02 0.00 0.00 0.00 0.00 0.00 0.00 0.01 0.01 0.01 0.02
0.00 0.00 0.00 0.01 0.01 0.02 0.02 0.02 0.02 0.03 0.03 0.02 0.02 0.02 0.02 0.02 0.02 0.02 0.01 0.01 0.01 0.02 0.01 0.03 0.05 0.04 0.04 0.03 0.01 0.00 0.00 0.00 0.00 0.00 0.00 0.01 0.01 0.02
0.01 0.01 0.01 0.01 0.01 0.01 0.01 0.01 0.02 0.02 0.02 0.02 0.02 0.02 0.02 0.02 0.02 0.01 0.01 0.01 0.01 0.01 0.01 0.01 0.03 0.04 0.05 0.04 0.02 0.01 0.01 0.00 0.00 0.00 0.01 0.01 0.01 0.01
0.01 0.01 0.01 0.01 0.01 0.01 0.01 0.01 0.01 0.01 0.01 0.01 0.01 0.01 0.01 0.01 0.01 0.01 0.02 0.02 0.02 0.01 0.00 0.01 0.01 0.03 0.04 0.03 0.03 0.02 0.01 0.01 0.01 0.01 0.01 0.01 0.01 0.00
0.02 0.02 0.02 0.01 0.01 0.01 0.01 0.01 0.01 0.01 0.01 0.01 0.02 0.02 0.02 0.02 0.01 0.01 0.02 0.02 0.02 0.01 0.01 0.01 0.01 0.02 0.02 0.02 0.02 0.01 0.01 0.01 0.01 0.01 0.01 0.01 0.01 0.01
0.02 0.02 0.01 0.01 0.02 0.01 0.01 0.01 0.01 0.01 0.01 0.02 0.02 0.02 0.02 0.02 0.02 0.02 0.02 0.02 0.02 0.02 0.02 0.02 0.02 0.02 0.02 0.01 0.01 0.02 0.02 0.02 0.01 0.01 0.02 0.02 0.01 0.01
0.01 0.01 0.01 0.01 0.01 0.01 0.01 0.02 0.02 0.02 0.02 0.02 0.02 0.01 0.02 0.02 0.02 0.02 0.02 0.02 0.02 0.02 0.01 0.02 0.02 0.03 0.03 0.02 0.01 0.01 0.02 0.02 0.01 0.01 0.01 0.02 0.01 0.01
0.00 0.01 0.01 0.01 0.01 0.01 0.01 0.01 0.01 0.01 0.01 0.01 0.01 0.01 0.01 0.02 0.02 0.02 0.02 0.02 0.02 0.02 0.01 0.01 0.02 0.03 0.04 0.03 0.02 0.01 0.01 0.01 0.02 0.02 0.01 0.01 0.01 0.00
0.00 0.01 0.01 0.01 0.01 0.01 0.01 0.01 0.01 0.01 0.01 0.01 0.01 0.01 0.01 0.02 0.02 0.02 0.01 0.01 0.02 0.02 0.02 0.01 0.01 0.01 0.02 0.02 0.02 0.01 0.01 0.01 0.01 0.01 0.01 0.01 0.01 0.01
0.01 0.01 0.01 0.01 0.01 0.01 0.01 0.01 0.01 0.01 0.02 0.02 0.02 0.02 0.01 0.02 0.02 0.02 0.02 0.01 0.01 0.02 0.01 0.01 0.01 0.01 0.02 0.02 0.02 0.01 0.01 0.01 0.01 0.01 0.01 0.02 0.02 0.02
0.01 0.01 0.01 0.01 0.01 0.01 0.01 0.01 0.01 0.02 0.02 0.02 0.02 0.01 0.01 0.02 0.02 0.02 0.01 0.01 0.01 0.01 0.02 0.02 0.01 0.01 0.01 0.02 0.02 0.01 0.01 0.01 0.01 0.01 0.01 0.01 0.01 0.01
MSLP
1023.42 1023.59 1023.72 1023.80 1023.78 1023.65 1023.41 1023.06 1022.62 1022.14 1021.65 1021.16 1020.72 1020.32 1019.96 1019.62 1019.29 1018.96 1018.61 1018.24 1017.85 1017.46 1017.06 1016.66 1016.28 1015.90 1015.51 1015.11 1014.68 1014.22 1013.73 1013.22 1012.70 1012.19 1011.71 1011.26 1010.86 1010.50
1023.04 1023.15 1023.24 1023.29 1023.26 1023.14 1022.93 1022.62 1022.23 1021.80 1021.35 1020.90 1020.47 1020.07 1019.69 1019.32 1018.96 1018.59 1018.21 1017.81 1017.40 1016.98 1016.56 1016.16 1015.77 1015.38 1014.99 1014.58 1014.15 1013.69 1013.20 1012.69 1012.17 1011.66 1011.16 1010.70 1010.28 1009.90
1022.54 1022.59 1022.63 1022.63 1022.58 1022.46 1022.26 1021.99 1021.66 1021.29 1020.91 1020.51 1020.13 1019.75 1019.38 1019.01 1018.62 1018.22 1017.80 1017.36 1016.92 1016.47 1016.03 1015.60 1015.19 1014.79 1014.39 1013.98 1013.55 1013.09 1012.61 1012.11 1011.59 1011.08 1010.57 1010.10 1009.66 1009.25
1021.97 1021.96 1021.93 1021.88 1021.79 1021.66 1021.47 1021.24 1020.97 1020.67 1020.35 1020.03 1019.70 1019.36 1019.02 1018.65 1018.25 1017.83 1017.37 1016.90 1016.41 1015.92 1015.45 1015.00 1014.57 1014.15 1013.74 1013.32 1012.89 1012.44 1011.97 1011.47 1010.96 1010.45 1009.94 1009.46 1009.00 1008.57
1021.33 1021.26 1021.18 1021.08 1020.95 1020.80 1020.62 1020.42 1020.20 1019.96 1019.71 1019.45 1019.18 1018.89 1018.57 1018.22 1017.82 1017.38 1016.90 1016.39 1015.87 1015.35 1014.84 1014.36 1013.90 1013.47 1013.05 1012.63 1012.20 1011.75 1011.28 1010.80 1010.29 1009.79 1009.28 1008.79 1008.32 1007.87
1020.66 1020.54 1020.41 1020.26 1020.10 1019.93 1019.75 1019.56 1019.37 1019.18 1018.99 1018.79 1018.57 1018.32 1018.03 1017.69 1017.30 1016.85 1016.36 1015.83 1015.29 1014.74 1014.21 1013.71 1013.23 1012.78 1012.35 1011.92 1011.49 1011.05 1010.58 1010.10 1009.60 1009.10 1008.59 1008.09 1007.61 1007.16
1019.97 1019.82 1019.65 1019.47 1019.28 1019.09 1018.89 1018.71 1018.53 1018.37 1018.21 1018.04 1017.86 1017.64 1017.38 1017.06 1016.68 1016.24 1015.75 1015.22 1014.67 1014.11 1013.58 1013.06 1012.58 1012.12 1011.68 1011.25 1010.81 1010.36 1009.90 1009.41 1008.91 1008.39 1007.88 1007.37 1006.89 1006.43
1019.27 1019.10 1018.91 1018.71 1018.49 1018.27 1018.06 1017.86 1017.68 1017.52 1017.37 1017.22 1017.05 1016.86 1016.62 1016.32 1015.96 1015.54 1015.07 1014.56 1014.02 1013.49 1012.96 1012.46 1011.98 1011.52 1011.08 1010.64 1010.20 1009.74 1009.25 1008.75 1008.23 1007.70 1007.16 1006.64 1006.15 1005.69
1018.54 1018.37 1018.17 1017.95 1017.71 1017.47 1017.24 1017.02 1016.83 1016.65 1016.49 1016.34 1016.18 1016.00 1015.77 1015.50 1015.17 1014.78 1014.35 1013.88 1013.39 1012.89 1012.40 1011.92 1011.47 1011.02 1010.58 1010.14 1009.68 1009.20 1008.69 1008.16 1007.61 1007.04 1006.48 1005.94 1005.44 1004.98
1017.80 1017.63 1017.42 1017.19 1016.94 1016.68 1016.43 1016.18 1015.96 1015.77 1015.59 1015.43 1015.26 1015.08 1014.88 1014.63 1014.34 1014.00 1013.62 1013.22 1012.79 1012.35 1011.92 1011.49 1011.06 1010.64 1010.21 1009.76 1009.29 1008.79 1008.24 1007.67 1007.08 1006.47 1005.88 1005.31 1004.78 1004.32
1017.02 1016.85 1016.64 1016.41 1016.15 1015.88 1015.61 1015.35 1015.10 1014.88 1014.69 1014.51 1014.34 1014.17 1013.98 1013.76 1013.52 1013.24 1012.93 1012.60 1012.24 1011.88 1011.52 1011.15 1010.78 1010.39 1009.97 1009.53 1009.04 1008.51 1007.93 1007.32 1006.68 1006.03 1005.39 1004.79 1004.24 1003.77
1016.20 1016.04 1015.84 1015.60 1015.34 1015.07 1014.78 1014.51 1014.25 1014.02 1013.81 1013.62 1013.45 1013.28 1013.12 1012.94 1012.74 1012.52 1012.28 1012.03 1011.76 1011.48 1011.20 1010.90 1010.58 1010.23 1009.84 1009.41 1008.92 1008.36 1007.76 1007.11 1006.43 1005.74 1005.07 1004.44 1003.87 1003.39
1015.38 1015.21 1015.02 1014.79 1014.53 1014.25 1013.96 1013.68 1013.42 1013.18 1012.96 1012.78 1012.61 1012.46 1012.32 1012.17 1012.02 1011.86 1011.69 1011.52 1011.33 1011.13 1010.92 1010.69 1010.43 1010.13 1009.78 1009.36 1008.88 1008.32 1007.71 1007.04 1006.33 1005.62 1004.92 1004.27 1003.69 1003.21
1014.57 1014.40 1014.21 1013.98 1013.72 1013.45 1013.17 1012.89 1012.63 1012.39 1012.18 1012.00 1011.84 1011.71 1011.59 1011.48 1011.37 1011.26 1011.15 1011.04 1010.93 1010.80 1010.66 1010.50 1010.29 1010.04 1009.73 1009.35 1008.88 1008.34 1007.73 1007.07 1006.36 1005.65 1004.95 1004.30 1003.72 1003.23
1013.80 1013.63 1013.44 1013.21 1012.96 1012.69 1012.42 1012.15 1011.89 1011.66 1011.46 1011.29 1011.15 1011.03 1010.93 1010.85 1010.78 1010.71 1010.65 1010.59 1010.53 1010.46 1010.38 1010.27 1010.12 1009.92 1009.65 1009.31 1008.88 1008.37 1007.79 1007.15 1006.47 1005.77 1005.09 1004.46 1003.90 1003.43
1013.11 1012.93 1012.73 1012.50 1012.25 1011.99 1011.72 1011.46 1011.22 1011.01 1010.82 1010.66 1010.53 1010.43 1010.35 1010.29 1010.24 1010.20 1010.17 1010.15 1010.12 1010.10 1010.06 1010.00 1009.89 1009.74 1009.51 1009.21 1008.83 1008.36 1007.82 1007.23 1006.59 1005.94 1005.30 1004.71 1004.18 1003.73
1012.48 1012.30 1012.09 1011.86 1011.61 1011.36 1011.10 1010.85 1010.62 1010.42 1010.24 1010.10 1009.99 1009.90 1009.83 1009.78 1009.74 1009.72 1009.71 1009.71 1009.71 1009.71 1009.70 1009.67 1009.60 1009.48 1009.30 1009.04 1008.71 1008.29 1007.80 1007.26 1006.68 1006.09 1005.51 1004.96 1004.47 1004.06
1011.92 1011.73 1011.52 1011.28 1011.04 1010.78 1010.53 1010.30 1010.08 1009.89 1009.74 1009.61 1009.51 1009.43 1009.37 1009.32 1009.30 1009.28 1009.28 1009.28 1009.30 1009.32 1009.33 1009.32 1009.27 1009.18 1009.03 1008.81 1008.51 1008.14 1007.71 1007.22 1006.70 1006.16 1005.64 1005.15 1004.70 1004.32
1011.37 1011.18 1010.97 1010.74 1010.50 1010.25 1010.02 1009.80 1009.60 1009.43 1009.29 1009.17 1009.08 1009.01 1008.96 1008.92 1008.89 1008.88 1008.88 1008.89 1008.92 1008.94 1008.96 1008.96 1008.94 1008.87 1008.74 1008.55 1008.28 1007.95 1007.56 1007.12 1006.65 1006.16 1005.69 1005.24 1004.83 1004.47
1010.82 1010.63 1010.43 1010.20 1009.98 1009.75 1009.53 1009.33 1009.15 1009.00 1008.88 1008.77 1008.69 1008.63 1008.58 1008.55 1008.52 1008.52 1008.52 1008.54 1008.57 1008.60 1008.63 1008.64 1008.63 1008.57 1008.46 1008.29 1008.05 1007.75 1007.39 1006.99 1006.55 1006.10 1005.66 1005.24 1004.85 1004.51
1010.23 1010.05 1009.86 1009.65 1009.45 1009.24 1009.05 1008.88 1008.72 1008.60 1008.49 1008.40 1008.33 1008.28 1008.23 1008.20 1008.18 1008.18 1008.19 1008.22 1008.25 1008.30 1008.34 1008.37 1008.37 1008.33 1008.24 1008.08 1007.87 1007.59 1007.25 1006.87 1006.45 1006.03 1005.60 1005.20 1004.81 1004.47
1009.59 1009.43 1009.25 1009.08 1008.90 1008.73 1008.57 1008.42 1008.30 1008.19 1008.11 1008.03 1007.97 1007.93 1007.89 1007.86 1007.85 1007.85 1007.88 1007.91 1007.97 1008.03 1008.09 1008.14 1008.16 1008.14 1008.07 1007.94 1007.74 1007.48 1007.17 1006.81 1006.41 1006.00 1005.58 1005.17 1004.78 1004.41
1008.90 1008.76 1008.62 1008.47 1008.33 1008.19 1008.07 1007.96 1007.86 1007.78 1007.71 1007.64 1007.59 1007.55 1007.52 1007.50 1007.49 1007.51 1007.54 1007.60 1007.68 1007.76 1007.85 1007.93 1007.98 1008.00 1007.96 1007.86 1007.70 1007.47 1007.18 1006.84 1006.46 1006.06 1005.64 1005.22 1004.82 1004.43
Thickness
5515 5511 5506 5502 5497 5493 5488 5482 5476 5476 5481 5481 5478 5477 5473 5470 5467 5464 5461 5458 5456 5453 5451 5450 5448 5446 5445 5445 5444 5444 5444 5445 5446 5448 5451 5454 5458 5461
5507 5502 5497 5493 5489 5484 5479 5474 5468 5464 5467 5470 5465 5463 5459 5456 5453 5450 5447 5443 5440 5438 5436 5434 5432 5430 5428 5426 5425 5425 5424 5425 5426 5428 5430 5433 5436 5440
5498 5493 5489 5484 5479 5474 5469 5464 5458 5453 5454 5460 5453 5449 5445 5441 5438 5434 5430 5427 5424 5420 5417 5415 5413 5410 5408 5406 5404 5403 5402 5402 5403 5405 5407 5410 5413 5417
5489 5484 5479 5474 5469 5464 5458 5453 5448 5443 5439 5443 5442 5434 5429 5424 5421 5417 5413 5410 5406 5402 5398 5395 5392 5389 5386 5383 5382 5380 5380 5380 5380 5382 5384 5387 5390 5393
5480 5475 5470 5464 5459 5453 5448 5442 5437 5433 5427 5424 5425 5419 5413 5407 5402 5399 5395 5391 5387 5383 5379 5376 5372 5368 5365 5362 5360 5359 5358 5358 5359 5360 5361 5363 5366 5370
5472 5466 5460 5454 5448 5443 5437 5431 5425 5418 5412 5407 5406 5402 5396 5389 5382 5379 5377 5372 5368 5363 5359 5356 5352 5349 5345 5342 5340 5338 5338 5338 5339 5340 5342 5344 5347 5350
5462 5456 5450 5444 5439 5432 5426 5419 5411 5403 5396 5391 5388 5384 5378 5370 5363 5358 5356 5354 5351 5343 5339 5337 5332 5329 5326 5322 5320 5319 5320 5321 5323 5324 5326 5328 5331 5334
5452 5446 5440 5433 5427 5422 5415 5408 5400 5390 5382 5375 5371 5366 5361 5353 5347 5341 5335 5332 5332 5328 5319 5319 5313 5311 5308 5306 5305 5305 5306 5307 5309 5311 5313 5315 5318 5321
5441 5435 5429 5423 5415 5408 5402 5396 5388 5378 5370 5362 5356 5351 5344 5338 5330 5325 5319 5313 5312 5308 5300 5303 5298 5296 5295 5293 5293 5293 5294 5296 5298 5299 5301 5304 5306 5310
5430 5423 5416 5410 5402 5394 5389 5382 5374 5365 5356 5348 5342 5338 5331 5324 5315 5309 5304 5301 5300 5293 5285 5285 5286 5284 5284 5282 5281 5282 5284 5286 5288 5290 5292 5295 5298 5302
5420 5412 5404 5397 5391 5383 5375 5368 5361 5353 5345 5337 5331 5324 5318 5311 5302 5295 5290 5284 5286 5283 5275 5271 5273 5272 5273 5272 5273 5273 5275 5276 5279 5282 5285 5288 5291 5294
5408 5400 5391 5384 5378 5369 5360 5352 5346 5340 5332 5326 5318 5311 5303 5296 5289 5281 5275 5270 5269 5269 5265 5260 5260 5257 5261 5265 5264 5264 5266 5268 5272 5275 5278 5281 5285 5288
5395 5387 5379 5371 5364 5356 5348 5339 5332 5327 5320 5312 5305 5298 5291 5284 5277 5271 5265 5260 5258 5257 5254 5250 5250 5248 5248 5253 5256 5257 5259 5262 5265 5268 5272 5275 5279 5283
5382 5374 5366 5359 5352 5344 5335 5328 5321 5313 5305 5298 5291 5285 5278 5272 5267 5262 5258 5254 5250 5249 5247 5244 5243 5242 5242 5245 5249 5252 5254 5257 5260 5264 5267 5270 5274 5279
5368 5362 5354 5347 5339 5330 5322 5314 5307 5298 5290 5284 5279 5273 5267 5262 5258 5254 5251 5248 5245 5244 5242 5240 5239 5239 5239 5241 5244 5247 5249 5253 5257 5260 5263 5266 5270 5274
5353 5347 5340 5333 5324 5316 5309 5301 5292 5285 5279 5274 5269 5264 5258 5254 5249 5245 5242 5240 5239 5239 5238 5238 5237 5237 5238 5239 5240 5243 5245 5248 5253 5256 5260 5264 5268 5271
5341 5334 5325 5317 5310 5303 5296 5289 5282 5276 5270 5265 5259 5255 5251 5246 5243 5239 5236 5234 5232 5233 5233 5234 5235 5235 5236 5236 5239 5241 5244 5247 5250 5254 5257 5261 5265 5269
5327 5319 5312 5304 5297 5291 5285 5278 5272 5266 5261 5256 5251 5246 5242 5239 5236 5233 5231 5229 5228 5228 5229 5230 5230 5231 5232 5236 5239 5241 5242 5245 5249 5252 5255 5258 5263 5267
5313 5305 5298 5292 5285 5279 5273 5268 5262 5257 5252 5247 5242 5238 5236 5233 5230 5228 5226 5225 5224 5224 5225 5226 5226 5226 5227 5230 5235 5239 5240 5242 5246 5249 5253 5256 5260 5265
5299 5292 5286 5280 5274 5269 5263 5258 5253 5248 5243 5239 5235 5231 5228 5226 5224 5223 5221 5220 5220 5220 5221 5222 5223 5224 5225 5227 5230 5234 5239 5240 5243 5247 5251 5255 5259 5264
5289 5282 5276 5270 5264 5259 5254 5249 5245 5240 5236 5232 5229 5226 5223 5221 5220 5219 5217 5217 5217 5217 5218 5219 5221 5224 5225 5225 5226 5231 5236 5240 5243 5245 5248 5252 5256 5261
5280 5273 5267 5261 5255 5250 5245 5241 5237 5234 5230 5227 5224 5222 5219 5217 5216 5215 5214 5213 5213 5213 5215 5217 5219 5220 5221 5223 5225 5228 5232 5237 5241 5245 5249 5252 5253 5258
5271 5264 5258 5253 5247 5243 5238 5235 5231 5228 5225 5222 5220 5218 5216 5215 5213 5212 5211 5211 5211 5212 5213 5214 5216 5217 5219 5221 5223 5226 5229 5233 5237 5242 5246 5252 5256 5259